Temp
16 16 17 16 15 12 13 15 16 18 19 17 18 19 20 21 21 20 15 16 17 19 19 18 19 19 19 19 19 19 19 19 19 19 18 18 18 18 18 19 19 18 18 18 18 17 17 17 17
15 16 17 11 13 13 13 14 16 17 19 17 18 19 21 22 15 14 15 17 18 18 18 18 19 19 19 19 19 19 18 19 19 18 18 18 18 18 18 18 18 18 18 17 17 17 17 18 18
16 16 14 13 11 13 15 15 15 18 17 20 20 18 19 20 14 14 16 17 17 18 18 18 19 19 19 18 18 18 18 18 18 18 19 18 18 17 17 18 18 18 17 17 17 17 18 17 18
16 15 12 12 13 13 16 17 16 19 19 17 20 21 16 14 14 16 17 17 18 18 18 18 19 19 19 18 18 18 18 17 18 18 18 18 17 17 17 17 17 17 17 16 16 17 18 17 17
16 11 12 12 12 13 14 16 17 19 19 20 19 20 18 14 15 16 16 16 18 17 18 18 19 19 19 19 18 17 17 17 18 17 17 17 17 17 17 16 16 16 16 16 16 18 18 17 18
12 11 11 13 14 14 15 16 18 18 18 19 20 17 17 13 14 15 16 16 18 17 18 18 18 19 19 19 18 17 17 17 17 17 17 16 16 16 16 16 16 16 15 16 16 17 17 17 17
12 11 11 12 14 14 16 15 16 17 17 17 17 18 16 12 14 14 15 16 17 17 17 17 17 19 19 18 18 17 17 17 16 15 15 15 15 15 15 15 15 15 15 15 16 15 15 15 16
11 12 11 12 16 16 17 15 17 16 17 14 15 18 19 12 13 13 14 15 16 17 17 17 17 17 18 17 18 16 16 15 15 16 15 16 15 14 14 14 14 14 14 14 14 14 14 15 16
12 12 11 15 14 16 18 18 18 17 16 15 13 13 10 12 12 13 14 15 15 16 16 17 17 16 16 16 16 15 15 15 15 17 15 14 13 13 12 12 12 12 12 12 12 12 14 15 15
12 13 14 15 14 16 17 18 18 18 17 16 14 9 8 10 12 12 13 13 14 15 16 16 16 16 16 15 15 14 14 15 15 15 15 13 11 11 10 10 10 10 10 10 10 12 14 14 15
12 14 15 15 16 16 17 18 17 17 17 17 16 11 8 10 12 12 13 13 13 14 15 15 15 15 15 15 14 14 14 13 13 13 13 13 11 10 10 10 10 10 10 11 11 12 12 13 14
12 13 15 15 15 16 16 17 18 16 17 18 16 9 9 10 12 13 13 12 13 13 14 13 14 15 14 14 14 13 13 13 13 12 12 12 11 10 10 10 10 10 11 11 11 11 12 12 13
12 14 14 15 15 15 15 14 15 15 16 14 10 9 9 10 11 11 12 12 13 12 12 13 12 14 14 14 13 12 12 12 12 11 11 12 11 11 10 10 10 10 10 10 11 11 11 11 11
13 13 14 14 14 14 14 14 13 13 14 13 11 10 9 9 10 9 10 11 11 11 12 12 12 12 13 13 12 11 11 11 11 10 11 10 11 11 10 9 9 9 9 10 10 10 10 10 10
13 13 13 12 13 13 13 12 13 15 12 12 11 10 9 9 9 9 9 10 10 10 11 11 10 10 10 12 11 10 10 10 10 9 9 10 10 10 9 9 8 8 8 9 9 9 9 9 9
12 12 11 13 13 14 14 14 16 14 12 12 11 11 10 8 9 9 9 9 10 10 9 9 9 8 9 7 9 9 9 9 9 9 9 9 9 9 8 8 8 8 8 8 8 8 8 8 8
11 10 10 13 13 13 13 13 14 11 11 12 11 10 10 8 7 8 9 9 9 9 9 8 7 6 8 5 7 8 7 7 8 8 8 8 8 8 8 8 7 7 7 7 8 7 8 7 6
11 10 10 12 13 12 11 11 13 9 12 9 8 7 8 9 8 7 8 8 8 8 8 7 7 6 6 5 5 5 6 6 6 7 7 7 7 7 7 7 6 6 6 6 6 7 6 6 6
12 10 10 11 14 13 12 12 12 9 8 7 6 5 5 7 6 6 6 7 7 7 7 6 6 5 5 5 4 4 4 4 5 6 6 6 6 6 6 6 6 5 5 5 6 5 5 3 4
12 10 9 11 12 13 12 12 12 7 6 5 5 4 4 5 6 6 6 7 6 5 6 5 5 4 5 4 4 3 4 3 4 5 5 5 5 5 5 5 5 5 5 5 5 5 4 3 3
9 10 10 10 12 12 12 10 9 5 5 5 3 3 4 4 6 6 6 6 6 4 4 4 4 4 4 5 3 3 2 2 3 3 3 3 4 4 5 4 4 4 4 4 4 4 4 3 3
9 9 10 9 10 9 11 10 9 6 5 4 2 2 3 4 6 6 5 5 5 3 4 4 3 3 3 3 3 3 2 1 2 2 2 2 3 3 3 4 4 4 3 4 3 3 4 4 3
9 10 10 10 10 10 10 9 9 5 5 3 1 2 2 3 4 4 4 3 2 3 3 3 3 2 2 3 3 3 2 2 2 2 2 2 2 2 2 2 3 3 3 3 3 3 3 3 3
9 9 9 7 7 8 8 9 7 4 3 0 1 2 2 2 2 3 2 2 2 3 3 2 2 2 2 3 3 3 3 2 1 1 1 1 1 1 1 1 2 2 2 2 2 2 2 2 2
9 9 8 7 7 7 8 10 5 1 -2 -0 1 0 0 1 2 2 1 1 1 1 2 2 2 2 2 3 3 3 3 2 2 1 1 0 0 0 0 1 1 1 1 1 1 1 1 1 2
7 9 7 4 5 5 6 7 2 -3 -3 -1 0 1 1 1 1 1 0 -0 -0 0 1 2 2 2 2 3 2 2 2 2 2 1 1 1 1 0 -0 0 0 0 0 0 0 0 0 0 0
7 7 6 3 2 4 6 4 1 1 1 -1 0 0 0 1 0 0 -0 0 0 1 1 2 2 2 2 2 2 2 2 2 1 1 0 0 -0 -1 -1 -1 -1 -1 -1 -1 -1 -0 -1 -1 -1
7 7 7 7 8 8 3 3 2 1 -0 1 -0 -1 -1 -0 0 0 0 -0 0 1 1 2 3 3 2 2 2 1 1 1 1 0 -0 -1 -1 -1 -1 -1 -1 -1 -1 -1 -1 -1 -2 -1 -2
6 4 5 5 6 7 3 2 -1 -1 -2 -1 -1 -0 -0 -0 0 0 -0 -1 -0 1 1 2 2 2 2 2 1 1 1 0 0 -0 -1 -1 -1 -2 -2 -2 -2 -2 -2 -2 -2 -2 -2 -2 -2
4 4 3 5 4 4 5 4 1 -3 -1 -0 0 1 0 0 0 -0 -1 -1 -1 -1 -0 1 1 2 2 2 1 1 0 -0 -0 -1 -1 -2 -2 -2 -2 -2 -2 -2 -2 -2 -2 -2 -3 -3 -3
Height
777 777 778 778 802 812 811 795 782 777 774 764 763 766 768 765 774 787 765 764 767 771 777 780 784 786 789 792 794 797 801 803 806 806 809 812 814 818 819 821 823 825 827 827 828 828 830 833 834
775 778 780 791 807 813 802 787 781 771 762 762 761 762 763 764 766 766 767 766 769 772 777 780 783 787 790 792 795 798 801 804 806 808 810 814 816 819 822 823 826 828 831 832 832 832 833 834 836
774 778 786 795 810 800 793 781 773 765 764 760 762 762 761 760 763 764 764 766 770 775 778 781 784 786 790 793 796 799 802 805 807 809 811 814 817 820 822 823 824 829 831 834 835 835 835 836 839
772 779 790 799 794 790 777 770 771 764 760 763 759 761 764 763 763 764 765 767 772 776 779 782 785 787 790 795 797 800 804 806 809 811 814 816 819 821 824 826 828 831 832 834 837 836 836 838 841
772 782 796 800 789 781 776 767 767 765 763 760 760 761 764 764 763 764 767 771 774 778 781 784 786 789 791 795 799 802 805 808 811 814 816 819 822 825 826 829 831 832 834 836 837 837 838 841 844
777 783 800 790 780 773 767 763 763 763 761 760 761 766 762 763 764 764 768 773 778 781 783 785 787 791 794 797 800 803 808 810 813 816 819 822 824 827 829 832 833 834 836 838 839 838 840 843 847
772 783 789 789 777 770 760 759 762 760 761 761 757 764 761 762 762 765 769 774 778 782 785 786 789 792 795 798 801 805 809 811 814 818 821 824 828 829 832 834 835 837 839 841 842 843 844 844 849
767 772 783 778 763 760 750 755 749 756 755 754 754 761 757 756 760 764 770 775 779 782 785 788 791 794 796 800 803 806 809 810 812 819 823 826 828 830 833 835 837 839 841 843 844 845 846 849 850
761 773 779 758 764 755 747 749 745 745 752 754 756 757 759 757 762 765 769 774 779 782 785 788 791 795 797 801 803 804 808 812 817 818 826 830 833 835 836 838 840 842 843 844 846 847 848 850 853
759 758 754 747 750 749 746 745 746 748 750 751 753 758 759 760 762 764 767 771 776 780 783 787 790 793 795 799 802 805 811 815 818 820 826 833 836 838 839 839 840 842 844 844 845 847 849 853 855
749 742 742 742 741 743 745 745 744 748 753 748 749 755 760 762 763 766 770 773 776 779 783 786 789 792 795 800 804 808 812 816 821 824 828 831 836 839 841 843 843 845 846 846 847 849 852 854 856
746 738 738 739 738 741 744 742 743 745 744 740 742 749 758 761 762 763 768 771 775 780 783 786 788 791 796 800 805 810 814 818 822 826 830 832 836 840 843 844 846 847 848 848 850 851 853 855 857
742 738 736 736 739 740 742 744 743 744 738 741 746 750 754 758 763 766 769 771 775 778 782 785 789 792 796 800 805 810 814 819 822 827 830 834 837 840 844 846 848 849 850 851 852 854 855 857 860
730 733 734 736 738 739 742 741 744 741 735 740 744 748 751 752 755 764 767 770 773 776 781 784 789 791 795 800 805 809 814 818 823 827 831 835 838 841 844 847 849 850 852 853 854 856 857 859 861
726 732 732 733 735 736 739 741 736 734 736 739 741 743 748 752 755 754 760 766 773 778 782 784 788 789 794 799 804 809 814 819 823 827 832 836 839 842 845 847 850 851 853 854 856 858 860 861 864
731 734 740 726 731 731 733 722 720 722 731 734 739 740 743 748 747 754 758 762 768 775 783 788 790 791 794 801 803 809 814 819 823 828 832 836 840 843 845 848 851 853 854 856 858 860 862 864 866
729 734 734 725 722 725 729 724 721 726 728 731 737 739 739 744 748 750 755 761 766 770 777 784 791 794 796 802 805 811 816 821 824 829 833 837 840 843 846 848 851 854 856 858 860 861 864 866 869
721 733 730 725 719 723 729 731 722 732 727 737 742 743 742 741 741 748 754 760 766 770 775 782 788 795 798 804 807 812 818 823 827 830 834 837 840 844 846 849 852 854 857 859 861 863 866 868 871
715 725 726 724 713 719 724 724 725 733 738 740 745 746 746 742 744 747 753 760 764 769 775 780 786 793 798 802 810 813 818 825 828 832 835 838 841 844 847 850 853 856 859 860 862 864 867 871 874
710 721 731 723 717 719 720 721 722 738 743 747 749 749 748 744 745 749 753 760 764 767 773 779 785 792 797 802 807 816 818 827 829 833 837 840 842 845 848 851 854 856 859 861 864 866 868 872 874
721 719 724 725 719 719 722 727 732 744 746 747 750 750 749 748 746 749 753 759 765 770 774 779 785 791 797 802 807 816 821 826 830 834 838 841 843 845 848 851 854 857 860 862 865 867 869 871 875
716 717 719 726 727 738 722 729 723 741 745 749 754 752 751 750 750 752 755 762 767 772 777 782 787 792 798 803 808 813 818 822 829 834 838 842 845 847 849 852 854 857 860 863 865 868 870 872 874
710 706 713 716 724 728 725 732 722 742 744 752 759 755 754 754 754 756 760 764 769 774 778 784 789 794 799 804 809 814 819 824 830 834 838 843 846 849 851 854 856 858 861 863 866 868 870 872 874
705 710 718 731 734 732 731 728 729 750 753 761 758 757 757 757 757 760 764 768 772 777 781 785 791 797 802 806 811 815 820 825 830 835 838 843 847 850 852 855 858 860 862 864 866 869 870 872 874
705 710 723 738 739 732 726 720 735 760 768 762 759 762 762 759 760 763 766 771 775 778 783 788 793 799 804 808 813 817 821 825 829 834 839 843 847 851 854 856 859 862 864 866 868 870 872 873 875
710 706 721 758 747 746 737 734 755 772 770 763 762 763 763 764 765 766 769 773 776 780 784 789 795 800 805 810 814 819 823 827 831 835 839 844 848 852 855 858 861 863 865 868 870 872 874 876 877
710 715 720 749 759 752 732 748 761 761 763 766 765 766 770 770 769 771 774 777 781 784 788 792 797 803 808 812 816 821 825 828 832 837 842 846 850 853 856 859 862 865 867 869 871 873 876 878 879
708 715 718 718 713 716 754 757 757 760 766 764 768 773 774 774 773 775 778 781 785 788 792 796 800 804 809 813 818 822 826 830 835 839 844 848 851 855 857 861 864 867 869 871 873 875 877 879 881
720 730 725 725 725 715 757 758 763 765 770 769 772 772 773 774 776 778 782 785 787 791 795 798 802 806 810 814 818 823 827 831 836 840 845 849 853 856 859 862 865 868 871 873 875 876 878 880 881
727 727 736 725 737 739 731 740 754 765 765 766 768 769 773 775 779 783 786 789 792 795 798 801 804 808 811 815 819 824 828 832 837 842 846 850 854 857 861 864 866 869 871 874 876 877 880 881 883
Wind_Speed
6 2 4 4 3 4 4 7 2 3 4 6 6 5 8 6 6 5 1 7 23 30 24 21 22 22 22 21 20 18 18 17 17 20 21 21 21 20 19 21 21 20 18 19 21 20 20 18 18
9 4 3 2 4 3 6 4 8 7 3 5 5 4 3 6 2 1 10 13 28 28 23 23 24 23 22 23 21 19 19 17 17 19 20 20 20 20 18 18 19 20 17 17 19 19 20 18 17
13 3 3 3 4 6 4 6 8 3 7 2 3 1 4 2 1 9 4 23 30 26 23 23 25 25 24 23 23 22 21 20 19 20 20 20 20 20 23 25 16 13 14 15 18 20 20 19 17
10 3 4 3 10 5 5 3 6 1 2 3 0 2 1 1 1 10 9 29 28 24 23 24 27 28 27 26 25 25 23 22 23 22 21 20 20 23 21 16 15 17 16 16 17 19 18 19 17
5 3 2 3 8 4 5 4 2 4 3 1 2 2 2 1 2 8 19 29 28 23 25 25 27 26 27 26 24 24 24 24 23 23 23 22 22 22 21 20 19 16 15 15 13 14 14 12 14
3 3 2 9 8 5 5 7 3 4 2 1 1 4 3 2 5 12 24 29 26 22 24 24 27 26 25 24 25 24 23 24 22 21 20 20 20 19 18 16 15 14 14 13 13 12 11 11 11
6 5 6 5 9 6 5 10 8 10 5 8 4 5 2 2 11 19 25 30 26 21 21 23 24 25 24 22 22 23 21 21 21 21 21 20 17 16 14 13 13 13 14 16 14 14 14 14 15
5 4 6 8 11 10 5 8 5 8 8 2 3 6 6 4 19 25 26 28 23 22 22 21 23 22 22 20 21 21 25 29 28 21 19 16 17 18 16 16 13 13 13 14 16 16 16 15 15
4 3 6 10 9 5 2 4 3 3 6 2 0 1 5 16 23 25 25 26 26 21 23 22 22 23 23 23 28 34 32 28 24 21 15 15 13 13 14 12 14 13 14 14 14 13 14 17 18
5 9 11 6 7 5 5 3 1 3 3 4 3 2 4 17 21 21 23 21 21 23 22 23 26 27 29 32 34 32 30 25 23 24 21 8 7 10 12 16 17 15 14 13 14 14 15 16 16
6 10 10 4 5 5 4 3 4 6 3 7 6 6 10 14 19 16 16 18 16 22 23 25 29 30 31 33 33 30 26 25 23 19 12 8 11 12 12 12 12 11 9 8 11 15 15 15 15
5 9 7 8 6 4 5 3 3 6 7 3 5 8 13 16 18 21 19 20 22 22 24 27 31 33 34 33 31 28 26 23 20 14 12 11 12 11 9 8 8 8 9 11 13 14 15 15 15
7 2 8 12 5 4 2 8 8 6 8 6 8 9 14 15 16 17 18 20 26 24 24 28 30 35 34 33 31 28 26 22 18 15 13 10 11 10 9 9 8 9 10 10 13 14 15 17 17
6 11 13 6 5 5 7 8 6 6 11 7 9 12 12 17 21 16 21 23 25 28 28 29 31 38 35 34 31 28 24 21 17 15 13 12 10 10 9 9 9 9 9 11 12 13 14 16 16
3 3 3 5 6 6 4 10 14 11 7 10 10 9 8 9 17 25 27 25 25 27 30 32 32 34 34 34 31 27 23 20 18 16 13 12 10 9 9 9 9 9 10 11 13 15 15 17 16
6 4 6 8 9 5 11 17 5 13 10 11 10 9 10 12 19 20 26 29 27 27 28 27 29 28 32 30 29 26 23 21 18 16 14 12 11 9 8 8 9 9 10 11 13 15 16 17 15
5 4 6 2 11 8 11 1 10 6 7 8 6 8 9 7 7 20 27 28 28 32 32 30 26 26 30 26 26 25 22 20 18 16 14 12 11 10 9 8 9 10 10 11 12 14 13 16 16
7 5 4 6 7 7 7 4 2 4 4 5 2 3 6 10 14 17 26 29 26 31 31 30 28 27 26 25 26 25 22 20 18 16 14 13 11 10 10 10 10 11 12 13 14 15 16 16 16
3 4 5 4 3 5 7 7 8 2 4 4 3 4 4 3 5 18 24 27 28 30 30 31 31 29 29 28 27 25 25 20 19 16 14 13 12 11 10 10 11 12 12 14 15 18 18 20 17
12 9 6 3 3 1 4 8 4 2 1 1 2 4 5 2 10 13 21 25 25 29 31 31 31 30 29 29 28 25 25 19 18 16 14 12 12 11 11 11 12 12 14 15 16 16 18 13 7
10 17 8 7 3 3 1 8 4 1 3 3 3 2 3 4 10 11 15 22 22 25 29 30 30 30 29 28 26 26 21 20 19 16 15 13 12 12 11 11 11 12 12 15 14 13 12 9 6
14 8 8 7 5 5 6 6 4 3 4 2 4 4 4 4 7 7 11 15 18 20 25 26 27 28 27 28 27 29 21 22 18 18 15 13 11 12 11 11 11 12 13 13 13 12 9 7 7
6 8 12 8 7 1 5 2 3 4 4 4 3 4 4 4 6 9 10 16 20 24 25 24 25 25 26 25 25 25 21 16 19 17 17 14 13 11 11 10 11 11 11 11 10 10 9 8 8
6 6 6 5 3 4 8 10 4 4 3 2 0 4 4 6 8 9 15 18 20 22 24 24 24 23 23 22 21 20 20 20 22 20 19 17 14 13 12 11 10 10 10 9 9 8 7 7 7
3 7 3 1 2 4 2 10 4 3 2 2 5 4 4 5 8 9 10 13 17 21 22 23 24 23 23 22 19 17 18 20 23 23 21 20 18 15 14 12 12 11 11 11 11 10 10 10 9
6 6 5 7 5 3 1 7 4 3 3 3 6 5 5 7 7 8 9 11 15 19 21 21 21 22 21 19 17 16 17 19 21 22 22 19 18 16 14 13 12 12 12 12 11 11 12 11 11
4 3 3 6 1 3 3 0 2 3 5 5 6 7 6 5 7 9 10 13 15 18 18 21 22 21 19 17 16 15 16 18 21 20 19 18 17 16 15 14 14 13 13 12 11 12 12 11 11
3 2 3 0 5 6 2 2 4 7 7 6 7 6 6 5 7 8 9 13 14 16 16 18 19 20 18 15 15 15 16 17 19 19 19 17 17 16 16 15 14 13 13 12 11 12 11 10 10
0 2 3 2 1 1 3 5 3 8 7 8 7 7 7 7 6 7 9 13 14 14 14 16 17 18 17 15 16 17 17 18 19 19 18 18 17 17 16 15 14 13 12 11 10 10 9 9 8
2 2 3 3 2 1 0 1 3 6 8 8 8 9 8 8 7 6 9 11 13 14 14 17 16 16 16 15 16 17 18 19 20 20 19 18 18 17 16 15 13 12 10 9 7 7 7 7 7
Wind_Direction
181 187 163 54 82 67 237 245 259 197 220 202 148 148 192 163 175 210 281 162 153 152 158 161 163 161 159 155 160 159 158 156 153 147 143 142 140 133 126 116 108 98 94 103 99 97 96 95 98
177 172 66 78 117 172 249 234 218 203 224 119 112 109 143 218 214 299 138 161 154 155 164 161 165 159 155 156 156 154 152 148 150 142 139 142 139 135 130 117 104 98 93 93 93 94 96 97 104
175 152 97 146 173 211 220 224 240 291 249 240 128 274 157 210 198 173 185 160 157 161 165 167 163 158 153 149 147 142 140 137 138 141 140 138 134 135 131 132 126 103 113 108 100 99 96 92 96
150 57 32 128 240 257 209 303 214 221 0 231 193 207 317 307 200 177 166 160 159 162 167 165 157 153 150 145 139 137 133 130 127 126 126 129 130 127 124 130 120 129 128 111 108 109 95 87 92
113 80 171 241 258 228 234 267 270 323 314 213 164 286 248 356 223 176 161 161 165 164 164 159 157 153 150 148 142 136 133 126 122 119 118 118 116 115 117 120 122 126 121 112 112 112 104 94 101
84 107 133 220 246 219 225 206 239 209 233 187 218 149 248 293 177 160 161 165 168 166 165 160 159 155 152 148 145 139 135 128 123 117 114 114 117 118 119 124 125 122 112 114 109 114 121 129 114
151 139 198 183 245 265 217 173 192 229 214 229 142 161 273 227 175 162 164 168 172 170 167 158 158 161 160 153 149 144 141 141 129 119 117 117 117 125 118 125 125 122 120 116 125 121 126 138 139
138 138 166 215 230 265 206 173 191 173 253 86 134 203 236 203 170 164 166 171 178 176 177 166 157 162 159 159 161 148 141 137 145 140 139 152 156 146 137 136 132 124 126 119 119 120 121 144 136
137 161 195 218 179 216 184 171 147 152 126 99 16 314 320 159 158 159 165 172 183 183 182 173 167 163 158 152 142 137 141 143 145 150 143 141 143 146 142 134 114 115 109 105 109 115 143 142 139
177 216 218 190 182 201 167 146 168 149 156 205 182 79 111 151 161 162 171 173 171 168 166 172 168 162 157 147 146 142 145 144 142 140 155 152 169 158 150 133 133 124 114 115 136 151 153 148 144
211 230 211 210 164 181 218 262 189 165 205 231 201 165 159 166 177 172 170 174 165 164 163 166 167 167 163 152 148 146 145 141 138 137 141 143 154 151 145 145 137 138 130 133 138 136 142 150 146
227 223 205 222 219 173 194 169 225 183 218 142 202 139 161 178 185 182 176 168 167 167 166 164 166 164 161 156 152 150 148 146 143 136 132 137 148 149 147 144 137 138 120 122 125 136 135 138 136
235 237 226 227 187 209 241 226 224 217 246 102 118 147 170 179 188 187 179 170 177 176 171 170 165 165 162 161 157 155 152 150 144 140 137 144 149 149 142 134 125 123 121 122 126 128 133 134 132
187 201 229 227 210 223 214 252 164 219 234 167 161 187 186 182 181 164 176 177 180 183 183 179 175 168 166 165 162 158 154 150 146 141 140 142 147 149 143 135 131 124 124 126 126 127 131 129 130
176 222 220 210 204 230 178 259 239 227 168 183 195 197 191 191 172 188 181 182 182 183 187 179 178 167 166 166 165 160 157 153 148 146 144 145 150 151 147 139 133 129 125 128 128 127 129 129 127
168 166 232 185 179 224 161 240 263 220 188 198 203 201 194 187 197 185 182 175 175 179 181 179 176 172 167 164 163 159 155 154 150 147 146 147 150 152 153 146 139 133 132 132 131 128 125 123 123
213 200 214 252 195 178 194 105 226 57 179 226 216 213 204 181 181 183 182 176 171 174 177 176 176 167 168 162 157 155 151 150 146 147 147 147 150 151 155 151 150 145 142 138 137 129 134 123 115
200 213 203 184 204 189 200 237 287 31 104 120 65 333 251 201 203 173 175 173 168 167 176 177 173 174 166 162 149 146 145 144 144 144 147 150 151 151 154 151 152 153 154 147 141 135 128 124 121
120 177 179 202 194 171 221 247 234 52 73 81 36 350 328 216 144 151 162 164 156 165 172 177 173 173 168 158 152 139 140 143 144 147 151 153 152 152 154 155 154 154 161 152 148 140 135 123 120
230 232 207 273 271 63 285 266 195 160 165 86 347 334 332 119 151 152 157 165 160 157 167 174 175 173 171 165 158 158 144 150 144 147 149 153 154 154 157 160 160 159 163 158 156 156 144 132 128
228 232 224 219 183 257 72 276 214 201 120 108 36 356 344 156 159 157 152 164 152 151 159 166 171 172 172 169 159 152 145 142 139 146 150 152 158 158 160 158 159 159 163 164 166 170 167 146 123
233 188 179 191 157 231 174 273 254 155 149 110 12 38 44 111 145 140 138 148 137 139 155 167 169 170 171 170 164 161 155 148 158 155 150 149 150 151 154 158 157 158 162 164 168 176 180 166 160
221 178 186 179 197 181 210 229 247 131 206 207 321 30 76 93 110 113 116 120 123 140 152 162 166 168 169 169 168 168 161 159 155 155 151 149 145 146 146 151 153 155 159 169 179 185 191 195 183
143 89 63 47 120 220 185 184 259 187 218 113 77 58 63 99 104 104 112 122 124 140 151 156 162 163 168 167 170 173 168 160 159 157 153 148 146 142 141 141 142 140 141 144 151 160 166 172 172
125 136 146 138 184 220 197 174 240 337 304 222 139 81 37 74 105 114 117 123 128 136 146 155 161 160 168 170 174 178 178 175 171 167 160 152 147 147 142 141 136 134 132 129 130 131 129 128 134
177 175 166 183 181 216 137 215 255 238 295 96 94 89 74 74 82 87 98 114 126 142 150 155 160 158 166 170 169 171 174 176 173 169 165 160 156 151 145 142 139 134 131 126 123 120 116 116 114
185 185 150 102 103 79 194 352 18 121 91 74 102 95 70 62 76 86 91 107 127 142 148 154 154 151 154 158 160 165 171 173 169 165 162 158 156 149 146 145 140 133 130 126 124 119 114 114 109
75 101 84 74 197 207 294 260 226 183 166 136 115 110 101 85 80 81 84 104 127 138 140 150 153 154 155 158 162 163 165 167 164 161 160 159 156 153 148 143 138 133 129 125 125 120 114 115 108
60 81 85 87 8 214 155 260 224 185 167 144 135 125 114 96 79 81 80 89 117 133 141 149 154 155 156 161 163 162 161 163 165 164 163 160 155 152 148 143 137 132 129 126 126 123 123 121 116
46 43 131 146 226 45 18 341 351 142 132 131 128 119 106 99 95 88 92 101 112 127 141 152 155 159 162 165 165 165 163 164 166 165 162 160 156 154 150 144 138 131 128 129 128 124 124 121 119